Weather in Gaverdovskij

Russia / Republic of Adygea     44°36′44″N   40°01′21″E
temp.,
°C
wind,
m/s
gust,
m/s
humid.,
%
clouds,
%
prec.,
mm/h
press.,
hPa
HPBL,
m
1 march, mon
mon100:00+1w259799 0.2 1022297
03:000sw239596 0.2 1023177
06:00−2s229453 0.0 102439
09:00+1ssw127738 0.0 1025196
12:00+6wnw256919 0.0 10251099
15:00+6nnw236958 0.5 1025949
18:00+3n1284100 0.3 102638
21:00+2n1197100 0.3 102765
2 march, tue
tue200:00+2sse0097100 0.4 102864
03:00+1s119795 0.6 102956
06:00+1sse119190 0.0 102937
09:00+2s117672 0.0 1029204
12:00+6w24633 0.0 10281087
15:00+8w585941 0.1 10261482
18:00+4w5117421 0.0 1025499
21:00+2wsw398814 0.0 1026374
3 march, wed
wed300:00+2wsw4118489 0.0 1024544
03:00+2wsw6157949 0.0 10231114
06:00+2wsw716730 0.0 10211225
09:00+4wsw9177213 0.1 10211716
12:00+5wsw9167497 0.4 10211552
15:00+1wnw499898 7.0 1022434
18:00+2w389299 1.6 1023568
21:000wnw279594 1.8 1026340
4 march, thu
thu400:00−2ssw129528 0.1 102727
03:00−2s119314 0.1 102725
06:00−3s12910 0.0 102726
09:00+2s12730 0.0 1027201
12:00+6wnw24610 0.0 1025884
15:00+7nw24646 0.0 10241220
18:00+4nnw128374 0.1 102379
21:00+2ne118879 0.1 102324
5 march, fri
fri500:000sse118939 0.0 102222
03:00−1sse118520 0.0 102125
06:00−1sse11800 0.0 102122
09:00+4s11650 0.0 1021146
12:00+9nw12540 0.0 1020768
15:00+11n02540 0.0 10191010
18:00+6ne11730 0.0 101931
21:00+3s22840 0.0 102034